Simultaneous Nadir Overpasses (SNOs) Predictions

Prediction of SNOs between METOP-B and NPP Satellite Orbit:

Table of predicted SNOs for the next 14.0 days since TLE Epoch: 11/29/2014
Index Date (METOP-B) Time (METOP-B) Lat,Lon (METOP-B) SZA (METOP-B ) Date (NPP) Time (NPP) Lat,Lon (NPP) SZA (NPP ) Distance(km) Time Diff (sec)
1 11/29/2014 03:16:30 81.37, 64.12 107.42 11/29/2014 03:16:29 81.37, 64.12 107.42 0.07 1
2 11/29/2014 04:07:15 -81.37,-128.59 72.58 11/29/2014 04:07:14 -81.37,-128.59 72.58 0.07 1
3 11/29/2014 04:58:00 81.37, 38.68 107.44 11/29/2014 04:57:59 81.37, 38.68 107.44 0.07 1
4 11/29/2014 05:48:45 -81.37,-154.03 72.55 11/29/2014 05:48:44 -81.37,-154.03 72.55 0.07 1
5 11/29/2014 06:39:30 81.37, 13.24 107.46 11/29/2014 06:39:29 81.37, 13.24 107.46 0.07 1
6 11/29/2014 07:30:15 -81.37,-179.47 72.53 11/29/2014 07:30:14 -81.37,-179.46 72.53 0.07 1
7 11/29/2014 08:20:59 81.37, -11.80 107.43 11/29/2014 08:20:58 81.37, -11.80 107.43 0.07 1
8 11/29/2014 09:11:44 -81.37, 155.49 72.56 11/29/2014 09:11:43 -81.37, 155.49 72.56 0.07 1
9 11/29/2014 10:02:29 81.37, -37.24 107.45 11/29/2014 10:02:28 81.37, -37.24 107.45 0.07 1
10 11/29/2014 10:53:14 -81.37, 130.05 72.54 11/29/2014 10:53:13 -81.37, 130.06 72.54 0.07 1
11 11/29/2014 11:43:59 81.37, -62.68 107.47 11/29/2014 11:43:58 81.37, -62.68 107.47 0.07 1
12 11/29/2014 12:34:44 -81.37, 104.61 72.52 11/29/2014 12:34:43 -81.37, 104.62 72.52 0.07 1
13 11/29/2014 13:25:29 81.37, -88.12 107.49 11/29/2014 13:25:28 81.37, -88.11 107.49 0.07 1
14 11/29/2014 14:16:14 -81.37, 79.17 72.50 11/29/2014 14:16:13 -81.37, 79.18 72.50 0.07 1
15 11/29/2014 15:06:59 81.37,-113.56 107.52 11/29/2014 15:06:58 81.37,-113.55 107.52 0.07 1
16 11/29/2014 15:57:44 -81.37, 53.74 72.48 11/29/2014 15:57:43 -81.37, 53.74 72.48 0.07 1
17 11/29/2014 16:48:28 81.37,-139.00 107.54 11/29/2014 16:48:27 81.37,-138.99 107.54 0.07 1
18 11/29/2014 17:39:13 -81.37, 28.30 72.46 11/29/2014 17:39:12 -81.37, 28.30 72.46 0.07 1
19 11/29/2014 18:29:57 81.37,-164.04 107.51 11/29/2014 18:29:56 81.37,-164.03 107.51 0.07 1
20 11/29/2014 19:20:42 -81.37, 3.25 72.49 11/29/2014 19:20:41 <
